Location: Boyd Lake Observing Site
(40.4253°N, 105.0442°W)
Time: 03:51:00
(UTC-07:00)

ISS - Visible Passes

Search period start: 18 February 2018 00:00
Search period end: 28 February 2018 00:00
Orbit: 403 x 407 km, 51.6° (Epoch: 19 February)

Date Brightness Start Highest point End Pass type
(mag) Time Alt. Az. Time Alt. Az. Time Alt. Az.
25 Feb -0.8 05:23:18 10° SSE 05:24:51 13° SE 05:26:24 10° E visible
26 Feb -3.3 06:05:27 10° SW 06:08:40 62° SE 06:11:55 10° ENE visible
27 Feb -2.1 05:13:56 12° SSW 05:16:28 31° SE 05:19:24 10° ENE visible
